Torna al catalogo

SL-8 DEB

AttivoLEO
NORAD 23263·DEBRIS·🇷🇺 Russia

Lanciato Feb 12, 1991 da Plesetsk Cosmodrome

Loading…

Prossimi Passaggi (prossime 24 ore)

TLE

ObsoletoSource: Space-Track

Epoca: Sep 6, 2026, 15:02 UTC

1 23263U 91009CU  26249.62681748  .00000154  00000-0  17383-2 0  9994
2 23263  74.1277 122.4216 0164504  62.2820 326.5776 12.11020482645017

Traccia SL-8 DEB in tempo reale con AllMySat

Download on the App Store